• Em Portugal
  • Lista de países
  • Para 7 dias
  • Temperatura da água
  • Mapas de satélite
  • Mapa do tempo
  • Widgets de tempo
  • user-avatar
    Iniciar Sessão

    Previsão horária em Lankaran

    Hoje, 20 Agosto, Segunda-feira

    Tempo Temperatura Precipitação Vento Pressão Humidade
    00:00 +13°C° 0,1 mm 3 m/s 634 mmHg 86%
    01:00 +13°C° 0,2 mm 3 m/s 635 mmHg 86%
    02:00 +13°C° 0,2 mm 3 m/s 635 mmHg 87%
    03:00 +13°C° 0,2 mm 3 m/s 635 mmHg 87%
    04:00 +13°C° 0,2 mm 3 m/s 635 mmHg 87%
    05:00 +13°C° 0,2 mm 3 m/s 635 mmHg 87%
    06:00 +13°C° 0,2 mm 3 m/s 635 mmHg 87%
    07:00 +14°C° 0,2 mm 4 m/s 636 mmHg 85%
    08:00 +14°C° 0,2 mm 4 m/s 636 mmHg 83%
    09:00 +14°C° 0,2 mm 4 m/s 636 mmHg 82%
    10:00 +14°C° 0,1 mm 4 m/s 636 mmHg 79%
    11:00 +15°C° 0,1 mm 4 m/s 636 mmHg 77%
    12:00 +16°C° 0,1 mm 3 m/s 636 mmHg 75%
    13:00 +17°C° 0 mm 4 m/s 636 mmHg 70%
    14:00 +18°C° 0 mm 4 m/s 637 mmHg 66%
    15:00 +18°C° 0 mm 4 m/s 637 mmHg 61%
    16:00 +18°C° 0 mm 4 m/s 637 mmHg 64%
    17:00 +17°C° 0 mm 3 m/s 636 mmHg 68%
    18:00 +16°C° 0 mm 3 m/s 636 mmHg 71%
    19:00 +14°C° 0 mm 3 m/s 636 mmHg 76%
    20:00 +14°C° 0 mm 2 m/s 636 mmHg 80%
    21:00 +14°C° 0 mm 2 m/s 636 mmHg 84%
    22:00 +13°C° 0 mm 2 m/s 636 mmHg 85%
    23:00 +13°C° 0 mm 1 m/s 635 mmHg 85%

    Amanhã, 21 Agosto, Terça-feira

    Tempo Temperatura Precipitação Vento Pressão Humidade
    00:00 +13°C° 0 mm 1 m/s 635 mmHg 85%
    01:00 +13°C° 0 mm 1 m/s 635 mmHg 86%
    02:00 +12°C° 0 mm 1 m/s 635 mmHg 86%
    03:00 +12°C° 0 mm 1 m/s 634 mmHg 87%
    04:00 +13°C° 0 mm 1 m/s 635 mmHg 85%
    05:00 +13°C° 0 mm 1 m/s 635 mmHg 83%
    06:00 +14°C° 0 mm 1 m/s 635 mmHg 81%
    07:00 +16°C° 0 mm 1 m/s 635 mmHg 73%
    08:00 +18°C° 0 mm 2 m/s 636 mmHg 65%
    09:00 +20°C° 0 mm 2 m/s 636 mmHg 57%
    10:00 +21°C° 0 mm 3 m/s 636 mmHg 53%
    11:00 +22°C° 0 mm 3 m/s 636 mmHg 50%
    12:00 +24°C° 0 mm 3 m/s 636 mmHg 47%
    13:00 +24°C° 0 mm 3 m/s 636 mmHg 48%
    14:00 +24°C° 0 mm 3 m/s 635 mmHg 50%
    15:00 +25°C° 0 mm 3 m/s 635 mmHg 52%
    16:00 +22°C° 0 mm 3 m/s 635 mmHg 59%
    17:00 +21°C° 0 mm 3 m/s 634 mmHg 66%
    18:00 +20°C° 0 mm 3 m/s 634 mmHg 73%
    19:00 +19°C° 0 mm 2 m/s 634 mmHg 77%
    20:00 +18°C° 0 mm 2 m/s 634 mmHg 81%
    21:00 +18°C° 0 mm 1 m/s 634 mmHg 85%
    22:00 +18°C° 0 mm 1 m/s 634 mmHg 85%
    23:00 +16°C° 0 mm 1 m/s 634 mmHg 86%

    Depois de amanhã, 22 Agosto, Quarta-feira

    Tempo Temperatura Precipitação Vento Pressão Humidade
    00:00 +16°C° 0 mm 1 m/s 634 mmHg 86%
    01:00 +16°C° 0 mm 1 m/s 634 mmHg 87%
    02:00 +15°C° 0 mm 1 m/s 634 mmHg 87%
    03:00 +15°C° 0 mm 1 m/s 633 mmHg 88%
    04:00 +15°C° 0 mm 1 m/s 634 mmHg 87%
    05:00 +16°C° 0 mm 1 m/s 634 mmHg 85%
    06:00 +16°C° 0 mm 1 m/s 634 mmHg 84%
    07:00 +19°C° 0 mm 1 m/s 634 mmHg 77%
    08:00 +19°C° 0 mm 2 m/s 635 mmHg 69%
    09:00 +21°C° 0 mm 2 m/s 635 mmHg 61%
    10:00 +23°C° 0 mm 2 m/s 635 mmHg 57%
    11:00 +25°C° 0 mm 3 m/s 635 mmHg 53%
    12:00 +26°C° 0 mm 3 m/s 635 mmHg 48%
    13:00 +26°C° 0 mm 3 m/s 635 mmHg 48%
    14:00 +26°C° 0 mm 3 m/s 635 mmHg 48%
    15:00 +26°C° 0 mm 3 m/s 635 mmHg 47%
    16:00 +25°C° 0 mm 3 m/s 634 mmHg 52%
    17:00 +22°C° 0 mm 3 m/s 634 mmHg 57%
    18:00 +21°C° 0 mm 2 m/s 634 mmHg 62%
    19:00 +20°C° 0 mm 2 m/s 634 mmHg 66%
    20:00 +19°C° 0 mm 2 m/s 634 mmHg 70%
    21:00 +19°C° 0 mm 1 m/s 634 mmHg 74%
    22:00 +18°C° 0 mm 1 m/s 634 mmHg 74%
    23:00 +18°C° 0 mm 1 m/s 634 mmHg 74%

    23 Agosto, Quinta-feira

    Tempo Temperatura Precipitação Vento Pressão Humidade
    00:00 +18°C° 0 mm 1 m/s 634 mmHg 74%
    01:00 +16°C° 0 mm 1 m/s 634 mmHg 73%
    02:00 +16°C° 0 mm 1 m/s 634 mmHg 73%
    03:00 +16°C° 0 mm 1 m/s 634 mmHg 73%
    04:00 +16°C° 0 mm 1 m/s 634 mmHg 71%
    05:00 +16°C° 0 mm 1 m/s 635 mmHg 69%
    06:00 +16°C° 0 mm 1 m/s 635 mmHg 67%
    07:00 +18°C° 0 mm 2 m/s 635 mmHg 57%
    08:00 +20°C° 0 mm 2 m/s 636 mmHg 47%
    09:00 +24°C° 0 mm 3 m/s 637 mmHg 37%
    10:00 +25°C° 0 mm 3 m/s 637 mmHg 33%
    11:00 +26°C° 0 mm 3 m/s 637 mmHg 30%
    12:00 +27°C° 0 mm 4 m/s 637 mmHg 26%
    13:00 +27°C° 0 mm 4 m/s 637 mmHg 26%
    14:00 +27°C° 0 mm 4 m/s 636 mmHg 26%
    15:00 +27°C° 0 mm 4 m/s 636 mmHg 26%
    16:00 +25°C° 0 mm 3 m/s 636 mmHg 30%
    17:00 +24°C° 0 mm 3 m/s 636 mmHg 34%
    18:00 +21°C° 0 mm 2 m/s 635 mmHg 37%
    19:00 +20°C° 0 mm 2 m/s 636 mmHg 40%
    20:00 +19°C° 0 mm 2 m/s 636 mmHg 42%
    21:00 +17°C° 0 mm 2 m/s 636 mmHg 44%
    22:00 +17°C° 0 mm 2 m/s 636 mmHg 42%
    23:00 +17°C° 0 mm 2 m/s 635 mmHg 39%

    24 Agosto, Sexta-feira

    Tempo Temperatura Precipitação Vento Pressão Humidade
    00:00 +17°C° 0 mm 2 m/s 635 mmHg 37%
    01:00 +16°C° 0 mm 2 m/s 635 mmHg 36%
    02:00 +16°C° 0 mm 1 m/s 635 mmHg 36%
    03:00 +16°C° 0 mm 1 m/s 635 mmHg 35%
    04:00 +16°C° 0 mm 1 m/s 635 mmHg 35%
    05:00 +16°C° 0 mm 1 m/s 635 mmHg 34%
    06:00 +18°C° 0 mm 1 m/s 635 mmHg 34%
    07:00 +19°C° 0 mm 2 m/s 636 mmHg 31%
    08:00 +21°C° 0 mm 2 m/s 636 mmHg 28%
    09:00 +25°C° 0 mm 2 m/s 637 mmHg 25%
    10:00 +26°C° 0 mm 3 m/s 637 mmHg 23%
    11:00 +27°C° 0 mm 3 m/s 637 mmHg 22%
    12:00 +28°C° 0 mm 4 m/s 637 mmHg 21%
    13:00 +28°C° 0 mm 4 m/s 636 mmHg 21%
    14:00 +28°C° 0 mm 4 m/s 636 mmHg 21%
    15:00 +28°C° 0 mm 4 m/s 636 mmHg 21%
    16:00 +26°C° 0 mm 3 m/s 635 mmHg 24%
    17:00 +25°C° 0 mm 3 m/s 635 mmHg 27%
    18:00 +23°C° 0 mm 2 m/s 635 mmHg 30%
    19:00 +21°C° 0 mm 2 m/s 635 mmHg 31%
    20:00 +19°C° 0 mm 2 m/s 634 mmHg 33%
    21:00 +19°C° 0 mm 1 m/s 634 mmHg 34%
    22:00 +19°C° 0 mm 1 m/s 634 mmHg 33%
    23:00 +19°C° 0 mm 1 m/s 634 mmHg 32%

    25 Agosto, Sábado

    Tempo Temperatura Precipitação Vento Pressão Humidade
    00:00 +18°C° 0 mm 1 m/s 634 mmHg 31%
    01:00 +18°C° 0 mm 1 m/s 634 mmHg 31%
    02:00 +18°C° 0 mm 1 m/s 634 mmHg 31%
    03:00 +16°C° 0 mm 1 m/s 633 mmHg 31%
    04:00 +18°C° 0 mm 1 m/s 634 mmHg 30%
    05:00 +18°C° 0 mm 1 m/s 634 mmHg 30%
    06:00 +18°C° 0 mm 1 m/s 634 mmHg 29%
    07:00 +21°C° 0 mm 1 m/s 635 mmHg 26%
    08:00 +23°C° 0 mm 2 m/s 635 mmHg 23%
    09:00 +25°C° 0 mm 2 m/s 636 mmHg 20%
    10:00 +27°C° 0 mm 2 m/s 636 mmHg 19%
    11:00 +28°C° 0 mm 3 m/s 636 mmHg 18%
    12:00 +29°C° 0 mm 3 m/s 636 mmHg 18%
    13:00 +29°C° 0 mm 3 m/s 635 mmHg 18%
    14:00 +29°C° 0 mm 3 m/s 635 mmHg 19%
    15:00 +29°C° 0 mm 4 m/s 635 mmHg 19%
    16:00 +27°C° 0 mm 3 m/s 634 mmHg 23%
    17:00 +25°C° 0 mm 2 m/s 634 mmHg 27%
    18:00 +24°C° 0 mm 2 m/s 633 mmHg 30%
    19:00 +21°C° 0 mm 2 m/s 633 mmHg 32%
    20:00 +21°C° 0 mm 1 m/s 633 mmHg 33%
    21:00 +20°C° 0 mm 1 m/s 633 mmHg 35%
    22:00 +20°C° 0 mm 1 m/s 633 mmHg 34%
    23:00 +19°C° 0 mm 1 m/s 633 mmHg 33%
    Mostrar mais